Theta_e
322 325 326 328 327 324 321 316 311 311 311 312 315 318 319 318 316 318 319 316 314 314 314 313 313 314 314 315 313 310 309 310 311 310 310 311 311 313 314 314 316 320 321 320 321 324 327 329 331 331 332 332 332 332 332 332 333 333 333 333 333 333 333 334 335 335 335 335 335 334 333 332 332 333 333 332 332 331 331 331 331 330 330 329 328 328
322 326 327 326 324 320 317 313 309 310 310 310 313 316 317 317 316 315 315 315 314 313 314 314 312 313 314 313 311 309 311 311 310 310 311 311 310 310 312 314 314 315 317 319 319 321 324 328 330 331 331 332 332 332 332 333 333 333 333 333 333 333 333 334 334 335 335 335 335 334 332 332 332 333 333 332 332 332 331 332 332 331 330 330 330 329
323 326 326 322 317 314 312 310 308 309 310 311 312 314 316 317 316 314 313 315 314 312 317 317 313 314 315 313 311 311 311 311 310 310 311 311 311 309 309 312 313 314 317 320 319 318 321 326 328 330 331 331 332 332 332 333 333 333 333 333 333 333 333 333 334 334 334 334 334 334 333 332 332 332 332 332 332 332 331 331 331 330 329 329 330 330
324 324 322 317 312 311 310 308 308 309 309 311 313 314 316 316 315 315 313 314 314 312 315 317 315 316 316 314 314 313 311 311 311 312 311 311 312 310 309 309 311 314 316 320 320 316 317 322 326 328 330 330 331 331 332 332 333 333 333 333 333 333 333 333 333 333 333 334 334 334 334 332 332 332 332 332 332 331 331 330 330 330 329 330 330 330
322 320 317 315 311 310 311 310 308 308 309 311 313 315 317 318 317 316 315 314 314 311 313 316 317 319 319 316 316 315 311 311 312 312 312 312 311 311 310 310 311 313 314 317 320 316 313 317 323 326 329 330 330 331 332 332 333 333 333 333 333 333 333 333 333 333 333 334 334 334 334 333 332 332 332 332 332 331 331 330 331 331 330 330 330 330
320 316 314 315 313 311 311 311 310 309 310 311 314 314 316 318 317 317 316 315 314 315 315 313 314 324 329 320 315 314 312 312 312 312 313 312 311 311 311 310 311 312 313 315 316 313 310 313 320 324 327 328 330 331 331 332 333 333 333 333 333 333 333 333 333 333 333 333 333 333 333 332 332 332 332 331 330 330 330 331 330 329 328 329 330 330
317 315 313 314 315 314 313 312 310 310 310 311 315 314 314 316 317 318 317 316 320 320 315 311 315 326 328 321 316 314 313 313 312 312 313 312 311 311 310 310 311 312 313 313 313 311 309 312 316 321 325 327 329 331 332 332 332 333 333 333 333 333 333 333 333 333 333 333 333 333 332 332 331 331 330 329 328 329 329 330 329 328 327 328 330 330
315 316 315 315 316 317 317 313 311 309 309 313 318 316 313 314 318 319 317 320 324 318 313 313 317 319 319 317 316 313 313 314 312 312 312 311 311 311 309 310 311 313 313 313 315 314 309 310 315 319 323 327 329 330 331 331 332 332 333 333 333 333 332 333 333 332 333 333 333 332 332 332 331 331 331 329 328 329 329 330 330 330 329 329 329 329
314 317 316 315 316 317 316 314 312 309 309 315 320 317 313 314 318 319 317 321 320 315 316 318 315 316 321 323 318 311 312 315 315 314 313 311 311 311 310 310 312 314 315 314 315 314 309 308 314 318 321 325 328 329 329 331 331 332 332 332 332 332 332 332 332 332 332 333 333 333 332 332 332 331 331 330 329 329 329 330 330 330 330 328 327 327
312 316 316 314 316 315 313 313 313 310 310 314 317 317 318 319 319 317 318 320 316 314 319 319 314 314 322 327 320 312 311 314 317 316 313 311 310 311 311 312 312 316 320 320 315 309 307 309 312 316 320 322 325 326 328 329 330 330 331 331 331 332 332 332 332 332 332 332 332 332 332 332 332 331 331 330 330 329 329 329 329 328 328 326 325 325
312 313 314 314 316 315 312 314 315 312 312 314 318 319 319 323 324 322 326 324 315 316 320 320 317 312 317 325 319 313 314 315 315 315 314 312 311 311 311 312 314 319 324 325 319 309 306 309 311 314 318 320 322 324 325 327 328 329 330 330 331 331 331 332 332 332 332 332 332 332 332 332 332 331 330 329 329 328 328 327 327 326 325 324 324 323
312 314 315 315 317 316 312 314 315 315 314 314 322 322 318 324 324 321 325 321 315 320 320 317 316 311 315 322 319 315 316 314 313 314 316 315 313 312 311 312 316 321 323 324 324 317 309 308 310 312 313 316 317 318 320 322 323 325 327 328 330 330 331 331 331 332 331 332 332 332 332 332 332 331 330 329 328 327 326 326 325 324 324 323 322 321
314 318 318 315 316 315 314 315 315 316 314 313 319 319 316 321 318 318 322 317 317 319 313 311 314 312 314 317 316 316 315 314 313 312 313 313 313 314 312 314 318 321 322 322 323 322 316 309 309 311 311 312 313 313 314 315 316 318 321 324 326 328 330 331 331 331 331 331 332 332 332 331 331 331 329 329 328 327 326 325 324 323 323 321 321 320
316 319 318 315 314 313 315 316 315 317 314 313 315 315 318 320 316 317 319 316 318 318 311 309 313 315 316 316 316 316 315 314 311 309 310 310 311 312 312 315 319 318 319 320 320 324 321 310 308 311 312 312 312 312 312 311 311 313 315 318 322 325 328 330 331 331 331 331 331 332 332 331 331 330 329 328 328 327 325 324 324 323 322 321 320 319
318 319 316 316 315 313 313 313 316 319 315 314 316 316 321 325 322 320 319 321 323 319 313 310 314 321 321 316 316 314 313 314 313 314 314 314 314 313 312 316 319 318 317 318 319 321 315 307 308 311 311 312 312 312 312 311 310 311 312 315 319 323 326 328 330 331 331 331 331 331 331 331 330 329 328 327 326 326 325 324 323 321 320 320 319 318
317 318 315 315 314 312 314 314 316 318 316 316 317 317 318 322 327 323 317 323 326 320 316 312 316 325 319 312 313 312 313 315 317 319 318 321 320 316 317 319 317 317 318 317 319 321 312 305 308 311 310 312 312 312 312 312 311 311 312 317 320 323 325 327 329 330 330 330 330 330 330 329 329 328 327 326 325 324 324 324 322 320 319 319 317 315
317 317 315 314 312 312 315 316 316 316 316 315 314 317 316 316 325 322 313 316 319 317 318 314 315 322 316 312 317 316 315 316 317 320 322 323 322 321 323 320 316 318 318 317 318 318 311 305 308 310 311 313 312 312 312 311 311 311 314 319 321 323 325 326 328 328 329 329 329 329 329 328 328 327 326 325 324 323 323 322 320 318 318 317 314 311
318 317 315 315 313 312 313 315 315 314 314 315 315 317 314 312 320 323 316 319 318 316 322 317 313 318 316 315 320 316 314 317 317 320 322 322 323 325 324 318 316 316 315 315 315 312 307 305 308 311 312 314 313 312 311 311 311 312 314 319 322 323 324 325 326 327 327 328 327 327 326 326 326 326 325 325 324 323 322 319 317 316 315 313 310 307
318 319 315 313 315 314 313 314 315 313 310 313 316 314 314 316 318 317 315 320 317 314 323 320 312 315 316 319 322 314 313 319 315 316 320 322 324 324 321 318 317 315 314 314 314 313 307 304 307 310 311 313 314 313 312 312 311 312 315 318 320 322 324 324 325 325 326 326 326 325 325 325 324 324 323 323 322 321 319 316 314 313 311 308 306 304
318 322 319 313 314 316 316 315 316 315 311 311 311 310 314 319 319 316 316 319 317 316 322 319 313 317 320 319 321 316 316 317 313 316 322 324 324 320 316 318 317 315 315 313 313 314 307 303 306 309 311 312 313 314 314 313 312 312 315 317 319 321 322 323 324 323 324 324 324 324 323 323 323 322 321 320 319 317 315 313 312 310 307 305 304 303
315 321 320 316 314 314 315 316 318 318 315 313 313 311 313 313 315 318 317 317 320 321 323 317 315 325 326 317 317 316 315 315 312 316 320 319 319 317 314 316 315 313 314 311 311 312 305 302 305 307 308 309 311 313 314 314 314 313 315 317 318 319 320 321 321 322 322 322 323 323 322 321 320 320 319 317 316 314 313 311 308 306 304 303 302 300
314 318 321 317 315 316 316 314 315 316 316 316 315 315 316 315 318 319 315 315 317 317 320 318 317 328 328 314 312 312 312 314 312 314 315 314 316 317 314 314 313 313 312 310 311 310 303 301 303 305 305 307 309 311 312 314 314 314 315 316 317 318 319 320 320 321 321 321 321 321 320 319 318 317 316 314 313 312 310 307 305 303 302 301 299 298
318 322 324 319 317 318 316 312 310 312 315 315 313 314 316 316 320 320 316 318 316 310 314 316 313 323 327 316 311 311 312 314 312 311 313 310 311 315 314 313 311 311 310 309 309 306 300 301 303 303 304 305 307 310 312 313 314 314 315 315 316 317 317 318 319 319 320 319 319 319 318 317 316 315 314 312 311 309 306 304 303 302 300 298 296 295
317 319 322 320 319 320 319 316 312 311 314 315 315 315 314 315 319 323 322 322 318 313 314 313 312 322 330 320 314 314 313 314 313 311 312 310 309 311 313 313 312 311 309 308 307 302 299 300 301 301 302 304 305 308 310 312 313 313 314 314 315 316 316 317 317 317 317 317 316 316 315 314 313 312 311 310 308 306 304 302 301 299 297 295 294 294
314 316 319 320 320 320 322 321 316 313 314 317 318 315 314 317 318 318 316 313 315 319 317 313 316 324 327 321 317 316 313 313 314 312 311 311 310 311 312 312 312 310 309 309 307 304 302 300 299 300 301 302 304 305 307 309 311 311 312 312 313 314 314 314 314 314 314 313 313 313 313 312 311 310 309 307 305 303 302 300 298 296 295 294 293 293
317 320 317 318 319 319 320 319 318 318 316 316 318 315 314 316 314 315 316 312 314 319 314 314 321 324 323 319 315 315 314 314 315 314 311 310 309 310 312 312 311 310 309 308 306 305 304 301 299 299 300 301 303 304 305 306 308 309 310 310 311 312 312 312 312 311 311 311 311 310 310 309 309 308 306 304 302 301 299 297 295 294 293 293 293 292
322 322 315 315 317 317 319 319 318 320 318 315 317 317 317 314 312 317 320 316 319 320 315 319 323 318 318 317 315 318 320 318 318 319 317 313 310 310 311 310 309 308 307 307 306 305 304 303 300 299 300 301 302 303 304 305 306 307 308 308 308 309 310 309 309 309 309 309 309 308 308 307 306 305 303 302 300 299 296 294 294 293 292 292 292 292
321 319 315 315 315 316 320 320 318 318 316 315 316 318 320 317 314 317 317 316 322 320 315 322 323 314 313 317 318 321 322 320 319 318 318 315 312 312 312 310 310 309 307 306 305 305 305 305 302 299 299 301 301 301 302 304 305 306 307 307 307 307 307 307 307 307 307 307 307 306 305 304 303 302 301 300 298 296 294 293 292 292 292 292 291 291
316 315 315 315 315 317 318 316 316 317 315 315 316 316 318 319 317 317 316 315 319 316 312 318 321 315 312 315 319 319 318 317 313 310 311 314 315 315 314 313 312 311 309 308 306 305 305 305 303 300 299 300 300 300 301 302 303 304 305 305 305 305 305 305 305 305 305 305 305 304 303 302 301 300 299 297 295 293 293 292 292 291 291 291 291 291
314 316 317 315 313 316 318 316 315 316 315 315 316 315 315 317 317 316 315 314 315 315 313 314 316 315 312 314 318 318 314 311 310 311 315 317 318 318 317 317 316 312 310 309 307 305 304 304 302 300 300 299 299 299 300 300 302 302 303 303 303 303 303 304 304 304 303 303 302 301 301 300 299 298 296 294 293 292 292 291 291 291 291 291 291 291
313 316 315 314 314 314 318 319 316 316 316 315 315 315 314 315 316 315 315 314 314 314 313 313 315 315 313 314 316 314 311 308 310 317 320 317 317 318 319 318 314 312 310 308 307 305 304 304 302 299 299 299 299 299 299 300 301 301 301 302 302 302 302 302 302 302 302 301 300 300 299 298 297 295 294 293 292 292 291 291 291 291 290 290 290 290
315 315 312 313 316 313 315 318 317 314 313 314 315 316 314 314 314 314 314 314 314 314 314 314 314 312 313 318 317 313 312 310 311 317 319 316 316 318 321 321 317 313 310 308 307 306 305 305 303 301 300 299 299 299 300 300 300 300 301 302 302 302 301 301 301 300 300 299 299 298 297 296 294 293 292 292 291 291 291 290 290 290 290 290 290 290
318 317 315 316 317 314 312 316 317 314 313 314 315 315 313 313 313 313 314 314 313 313 314 314 312 312 316 319 316 314 315 314 314 316 315 315 316 316 319 321 317 312 310 309 308 307 306 305 303 301 301 300 300 300 300 301 300 301 301 301 301 301 300 299 299 299 298 298 297 296 295 294 293 292 291 291 291 290 290 290 290 290 290 290 289 289
319 318 318 318 318 316 312 313 317 317 315 315 317 316 314 313 314 314 313 313 312 312 312 312 313 315 318 317 314 314 315 315 314 313 310 313 317 319 319 318 315 311 310 310 309 307 305 303 302 302 302 301 301 300 301 300 300 300 300 300 299 299 299 298 298 297 297 296 296 295 293 292 291 291 291 290 290 290 290 290 290 289 289 289 289 288
318 318 320 321 321 317 313 314 318 317 315 317 320 319 314 312 313 313 313 313 312 312 312 312 313 316 317 316 314 312 312 313 314 314 313 313 316 321 323 321 316 312 311 311 310 309 305 302 302 303 302 302 302 301 300 300 300 299 299 299 299 298 298 297 297 296 296 295 294 293 292 291 291 290 290 290 290 290 289 290 289 289 289 288 288 288
315 317 320 320 319 317 314 316 317 316 316 320 321 316 311 312 313 313 313 313 312 312 313 312 311 312 315 316 313 312 312 313 314 318 318 316 315 316 320 321 317 314 312 311 310 308 305 303 303 303 302 302 302 301 300 300 299 299 298 298 298 297 297 297 296 295 295 294 293 292 291 291 290 290 290 289 289 289 289 289 289 289 288 288 288 287
314 317 319 317 317 318 317 316 317 317 316 318 320 317 314 315 315 314 315 315 313 312 312 311 311 311 312 314 313 313 312 311 312 316 318 317 316 314 314 315 314 313 310 307 306 306 305 304 305 304 303 302 301 301 301 300 299 299 298 297 297 297 296 295 294 294 294 293 292 291 291 290 290 290 290 289 289 289 289 289 289 288 288 288 287 287
314 317 317 316 317 320 320 317 317 318 315 315 319 319 317 319 317 314 314 316 316 315 312 310 312 312 311 313 314 313 310 310 313 314 313 315 317 313 310 308 305 304 305 305 304 305 305 305 305 304 303 303 301 301 300 299 299 298 297 297 296 295 295 294 293 293 293 292 292 291 290 290 290 290 290 289 289 289 289 288 288 288 287 287 287 287
317 317 316 316 318 319 319 317 316 315 314 318 321 319 317 319 317 315 315 315 316 318 315 311 311 313 312 313 314 312 311 313 315 312 311 315 315 311 310 309 303 299 301 304 305 305 306 306 305 304 303 302 301 301 300 299 298 298 297 296 295 294 293 293 293 293 292 292 291 290 290 289 289 290 290 289 289 289 288 288 288 287 287 287 287 287
316 316 314 317 318 317 317 317 317 316 316 321 324 318 314 314 316 318 318 315 316 319 318 314 313 313 313 312 312 312 314 314 313 312 315 318 315 309 307 307 303 298 299 303 305 305 306 305 304 303 303 302 302 301 300 299 298 297 296 295 295 294 293 293 293 293 292 291 290 290 289 289 289 289 289 289 289 288 288 288 287 287 287 286 286 286
316 316 316 316 316 317 317 317 318 318 318 324 323 315 312 314 316 319 318 318 321 320 314 313 314 313 311 312 312 311 311 312 315 319 321 318 316 311 302 297 297 297 298 301 303 304 304 304 303 303 303 302 302 300 299 299 297 296 296 295 294 294 294 294 293 292 291 291 290 289 289 288 289 289 289 289 288 288 287 287 287 287 286 286 286 286
316 317 317 316 316 317 318 317 317 318 319 321 315 310 312 315 317 319 319 320 323 322 316 313 314 314 313 313 313 311 310 313 318 323 322 318 318 315 303 296 297 298 298 300 301 302 303 302 302 302 301 300 300 300 299 298 297 296 295 294 294 295 294 293 292 291 291 290 289 289 288 288 288 289 288 288 288 287 287 286 286 286 286 286 285 285
313 315 316 314 315 318 318 317 318 317 315 313 311 310 312 316 322 326 322 315 315 320 321 318 316 315 315 316 315 312 311 314 318 321 322 318 314 309 302 297 298 297 296 298 300 300 301 301 300 300 300 299 299 300 299 298 296 295 295 294 294 294 293 292 291 290 290 289 288 288 288 288 288 288 288 287 287 287 287 286 286 286 285 285 285 284
313 314 315 314 314 316 317 316 317 315 311 310 314 314 311 314 321 326 322 315 315 318 321 321 319 315 313 316 317 313 312 315 317 319 321 318 312 306 300 295 294 294 295 297 299 299 300 300 299 298 299 299 299 299 298 298 297 295 295 294 294 293 292 291 290 289 288 288 288 287 287 288 288 287 287 287 287 286 286 286 285 285 285 284 284 284
312 313 315 316 315 315 315 314 315 314 310 308 314 318 317 316 316 315 318 321 320 317 316 318 321 317 312 312 313 313 313 314 316 316 317 315 310 304 299 294 292 293 295 296 296 297 298 298 298 298 297 297 298 298 298 297 297 295 294 294 293 293 292 290 289 289 288 287 287 287 287 287 287 287 286 286 286 286 286 286 285 284 284 284 284 284
312 314 316 317 315 313 312 312 312 312 310 308 308 308 311 314 312 310 314 320 318 313 310 312 317 318 312 308 311 315 315 313 314 313 311 309 306 300 296 293 292 292 294 295 295 296 297 297 297 296 295 295 295 296 296 296 296 295 294 293 293 292 291 290 289 288 287 287 286 286 287 287 286 286 286 286 286 286 285 285 285 285 284 284 283 283
311 312 314 315 314 313 313 313 311 311 311 311 309 305 305 308 307 306 311 315 311 308 306 306 307 309 306 305 311 317 315 311 312 313 308 306 306 302 296 293 291 291 293 294 294 295 295 295 295 294 293 294 294 294 294 294 294 295 294 293 292 291 290 289 288 287 286 286 286 286 286 286 286 285 285 285 285 285 285 285 284 284 284 284 283 283
310 310 313 315 315 313 312 309 306 307 307 306 307 309 308 308 306 303 303 304 303 302 301 301 302 304 306 305 307 313 313 307 308 312 310 306 305 302 296 291 289 290 292 292 293 294 294 294 294 292 292 292 292 292 293 293 293 293 293 292 291 290 289 288 287 287 286 285 285 285 285 285 285 285 285 285 284 284 284 284 284 284 284 284 283 283
309 309 312 315 314 311 308 304 303 308 309 306 306 307 305 303 305 303 300 301 303 304 303 301 299 300 303 303 304 310 314 308 304 308 310 308 307 302 294 290 290 290 291 291 292 292 293 293 293 292 291 291 292 292 292 292 292 292 292 291 291 290 289 288 287 286 285 285 284 284 284 284 284 285 285 284 284 283 283 283 283 283 283 283 282 282
308 311 312 312 313 312 311 308 307 312 314 311 309 307 301 298 302 303 303 304 306 306 306 305 301 297 295 296 298 306 314 310 302 303 307 307 303 296 291 289 290 290 289 290 291 290 291 291 291 291 291 290 290 291 291 290 290 290 290 290 290 289 289 288 286 285 284 283 283 283 283 283 283 283 283 283 283 282 281 281 281 281 281 281 280 280
310 313 311 311 312 313 312 309 308 313 316 311 306 305 301 298 302 305 305 305 304 302 302 306 307 304 300 295 292 297 306 306 298 298 304 302 294 290 290 290 290 290 289 289 290 289 289 290 290 290 290 290 290 290 290 289 289 289 289 289 289 289 288 288 286 284 283 283 283 282 282 282 282 283 282 282 282 281 280 279 278 278 279 279 279 279
Wind_Speed
3 5 6 10 11 12 13 9 7 8 8 8 5 4 6 6 5 5 4 6 1 5 7 8 8 10 10 8 6 4 4 6 8 7 7 7 6 7 8 9 10 10 12 16 19 22 25 28 29 29 30 29 29 31 32 33 34 35 35 36 36 35 34 34 34 33 32 31 29 27 26 26 26 24 24 23 22 20 19 19 19 19 18 16 13 13
3 9 14 14 10 9 11 6 6 9 9 8 6 4 6 6 5 4 3 4 3 3 6 4 5 10 10 9 5 3 5 8 10 9 9 10 9 8 9 11 11 9 8 9 14 19 23 26 28 29 29 29 29 30 32 33 35 36 36 36 36 36 35 35 35 34 33 33 31 29 27 26 25 24 24 23 23 21 20 19 19 20 18 17 17 16
5 12 12 9 8 7 8 6 8 10 9 8 5 4 6 4 3 3 2 4 3 2 4 1 4 9 11 8 4 5 7 8 9 10 11 11 10 9 10 11 10 9 8 8 11 16 21 25 27 28 29 30 31 32 32 33 34 35 36 37 36 36 36 36 35 35 34 33 31 29 27 25 25 24 23 23 22 20 20 19 20 20 17 16 17 18
7 7 4 8 7 7 7 6 7 7 7 7 4 4 4 3 3 2 3 2 3 1 1 2 3 7 8 6 5 8 8 6 6 8 9 8 10 10 10 9 9 10 10 10 10 12 18 22 24 27 29 31 32 32 32 33 34 36 37 38 37 37 37 36 35 35 34 32 30 28 26 24 23 22 21 21 21 21 20 19 20 19 16 15 16 15
6 1 7 9 7 8 7 6 7 6 6 6 5 6 4 3 5 3 2 1 2 2 2 4 2 6 6 5 8 7 5 5 6 7 9 8 9 8 7 7 8 10 10 11 11 10 14 19 23 27 30 31 31 32 34 35 36 36 37 38 37 37 37 37 36 34 33 31 28 26 23 21 20 20 20 19 20 20 20 20 19 16 14 14 14 12
2 3 9 11 8 6 6 8 8 7 6 6 6 8 7 6 6 3 4 5 2 3 3 2 1 6 5 5 9 6 2 5 5 6 11 10 8 7 8 9 9 9 9 9 10 10 12 17 22 25 28 29 31 34 36 36 37 37 37 37 37 37 37 37 36 35 34 32 30 28 25 22 20 19 19 19 18 18 18 18 16 13 13 13 12 12
2 2 8 11 9 8 7 9 9 8 6 6 5 8 9 7 5 5 7 6 4 5 3 1 5 6 6 5 9 4 3 8 6 6 11 10 7 8 9 10 8 8 8 8 9 9 11 16 19 22 26 29 32 35 36 35 36 36 36 36 36 36 36 36 36 35 34 33 32 30 28 26 24 22 21 20 18 16 16 15 14 14 13 12 10 10
6 7 5 8 10 9 8 10 10 9 7 6 4 7 9 7 7 7 8 6 3 3 2 2 3 4 5 6 6 2 2 8 8 9 11 9 10 11 10 10 9 10 8 8 9 9 11 16 19 23 27 31 33 33 33 33 34 35 35 35 35 35 35 35 34 34 34 33 33 31 28 27 26 25 23 21 17 15 14 13 13 13 11 10 9 8
8 12 8 9 10 8 10 10 8 8 7 7 3 5 6 6 7 7 7 4 0 1 3 3 3 3 6 6 4 2 2 7 8 11 13 12 13 12 10 10 10 9 8 8 9 10 12 17 21 24 26 28 30 29 29 31 32 33 33 33 33 33 34 34 33 33 33 33 32 31 29 27 25 24 22 19 16 14 13 12 12 11 10 9 7 8
5 9 9 10 9 8 9 8 7 9 7 4 4 5 4 3 3 3 5 4 3 2 7 7 6 4 5 6 3 1 2 7 8 9 10 11 12 10 9 10 9 8 7 7 8 10 13 16 18 20 21 23 25 25 25 27 28 29 31 31 31 32 32 32 32 32 32 31 31 30 29 27 25 23 20 17 15 14 14 14 14 13 11 9 9 10
1 2 5 7 6 5 5 5 6 8 6 4 5 5 5 4 4 3 2 4 2 5 8 7 7 5 5 5 4 4 5 7 8 8 8 8 9 9 10 10 8 7 6 6 6 8 11 12 13 16 17 19 20 21 22 23 24 26 27 29 30 30 30 31 31 30 30 30 30 30 29 28 26 23 20 18 17 17 17 16 15 13 11 10 10 10
3 3 3 3 3 4 3 4 2 1 3 4 4 4 3 3 3 3 3 2 4 8 6 3 3 4 5 5 4 6 6 6 8 8 9 8 8 8 8 8 7 7 6 6 5 6 7 8 10 13 16 17 18 19 20 21 22 22 24 25 27 28 29 29 29 29 29 29 29 29 29 28 26 24 22 20 20 19 19 17 16 13 10 10 10 9
2 2 3 1 2 5 5 3 0 2 2 4 3 5 4 1 1 2 2 2 5 6 3 1 2 3 6 7 7 8 9 8 8 8 8 7 8 8 7 7 6 5 5 6 5 5 5 7 10 13 15 16 17 18 19 19 20 21 21 22 24 26 27 28 28 28 28 28 28 28 28 27 25 24 23 22 22 21 20 18 16 13 11 12 12 11
1 4 3 4 3 5 7 7 4 2 5 7 5 7 7 3 4 6 4 1 4 4 2 1 1 3 4 5 9 12 11 7 7 7 7 7 8 8 7 6 5 5 5 5 5 5 5 7 11 13 14 15 15 16 17 17 18 19 20 21 22 24 25 26 27 27 28 28 28 28 28 27 26 25 24 24 23 23 21 18 15 13 14 14 13 13
6 3 6 9 5 6 9 8 5 4 6 6 3 4 6 5 5 6 4 3 4 2 2 2 1 4 4 4 8 10 8 5 4 6 6 6 7 7 5 5 5 6 5 4 5 5 6 8 11 12 13 13 14 14 15 16 17 18 19 20 21 22 23 24 25 27 27 28 27 27 27 27 26 26 25 25 24 23 21 17 15 14 15 15 14 13
8 5 2 4 3 7 8 4 2 5 5 4 1 3 5 5 5 3 3 5 4 1 1 2 3 4 4 6 6 4 6 6 4 5 4 6 6 3 4 5 6 6 5 5 5 5 6 8 10 10 11 12 12 13 15 16 17 18 18 19 20 21 22 23 24 25 26 26 26 26 26 27 27 26 26 25 23 21 19 17 16 16 16 16 14 13
7 3 1 3 2 3 7 5 3 3 4 2 3 5 5 3 7 5 2 0 3 2 3 2 3 5 3 6 6 4 6 7 6 5 4 5 4 3 5 6 5 6 6 6 6 5 6 8 9 10 11 11 12 13 15 16 17 18 18 19 20 20 21 22 23 25 25 26 26 26 26 26 27 27 26 25 22 20 18 16 16 17 17 16 14 13
5 1 1 4 4 3 3 5 2 2 3 4 4 6 3 2 4 4 2 2 3 3 4 0 3 4 1 3 5 5 5 9 9 7 5 5 4 6 6 6 6 6 5 5 5 5 6 8 10 11 11 11 12 12 14 15 15 16 17 19 21 22 22 23 23 25 26 27 27 26 26 26 26 26 25 24 23 21 19 18 18 18 17 16 14 14
5 3 3 2 5 3 2 4 2 2 3 4 4 3 3 3 3 1 3 2 1 3 4 3 3 3 4 5 4 3 7 10 9 6 5 7 7 7 6 6 6 5 4 5 5 4 5 7 10 11 11 12 12 12 12 13 14 15 17 19 21 23 23 24 24 26 26 27 27 26 26 25 25 25 24 23 22 20 19 19 19 18 17 17 17 17
4 4 1 2 2 2 2 2 5 4 3 2 1 1 1 3 5 3 3 3 4 4 3 3 3 3 5 6 5 7 10 11 8 5 7 10 9 8 7 7 7 6 6 5 5 4 5 8 10 11 12 12 13 13 13 14 15 17 18 19 21 22 23 24 25 26 26 26 26 26 25 25 24 24 22 21 20 20 20 20 19 19 19 20 20 19
4 3 2 2 2 2 3 3 6 6 4 2 2 4 3 0 1 2 1 3 4 3 3 2 2 5 7 5 8 12 12 9 8 7 8 9 8 8 7 7 7 6 6 5 5 5 5 8 10 10 11 11 12 14 14 15 16 18 19 20 22 23 23 24 25 25 26 26 26 26 26 25 24 23 21 20 20 21 21 20 20 21 22 22 21 20
3 4 4 2 1 4 3 1 3 5 4 3 3 4 4 2 3 3 4 1 2 2 4 4 2 7 6 4 9 12 8 4 5 7 7 7 7 8 7 7 7 6 6 6 6 5 6 9 10 10 11 11 12 14 15 16 18 19 21 21 22 23 24 25 25 25 25 25 25 25 25 24 23 22 22 23 23 22 21 22 23 24 24 23 22 20
3 4 4 2 3 4 3 2 4 4 3 2 3 3 3 3 4 5 6 3 1 1 2 3 2 7 6 4 6 7 4 2 3 5 6 7 7 7 7 7 6 6 6 6 5 5 7 10 12 12 12 13 14 16 17 18 19 21 22 23 23 24 24 24 25 25 25 25 25 25 24 24 24 25 25 25 24 23 24 25 25 25 24 23 22 20
3 4 4 1 2 3 3 1 2 3 2 2 4 3 3 3 2 4 5 4 3 3 2 1 4 7 6 3 3 5 5 5 5 5 6 7 5 5 7 6 6 6 5 5 5 5 7 10 11 12 14 15 16 17 18 19 20 21 23 24 24 25 25 24 25 25 25 25 25 25 25 26 26 27 26 25 25 26 27 27 27 25 24 23 21 19
3 4 5 3 1 2 2 2 2 4 4 3 2 1 2 2 4 3 2 3 2 4 5 5 6 6 6 4 3 4 5 6 7 6 6 7 5 5 5 5 6 6 5 6 6 5 6 8 10 12 14 16 17 19 19 20 20 21 23 24 25 25 25 25 25 25 26 27 27 28 28 28 28 27 26 27 28 29 29 28 27 25 23 22 20 19
5 5 5 7 7 8 8 6 6 6 3 1 0 0 2 4 5 3 2 3 3 4 4 6 5 6 7 6 5 6 5 6 7 5 4 6 5 4 5 5 6 6 6 7 7 6 6 7 8 12 14 17 19 20 20 21 21 22 22 23 24 25 26 26 26 26 27 29 30 30 29 29 28 28 28 30 31 31 30 28 26 25 22 21 20 19
4 4 6 10 11 10 8 4 4 7 4 4 3 1 4 4 3 3 2 3 5 3 3 5 5 5 7 7 7 7 6 6 7 6 4 5 4 4 4 4 4 5 5 6 6 6 6 7 8 12 15 17 18 20 21 21 22 23 23 23 24 25 26 27 27 28 29 29 30 30 29 29 29 29 31 32 32 31 29 27 26 24 23 21 20 19
4 5 10 13 12 8 6 4 7 10 7 10 8 6 7 6 5 5 5 7 5 4 6 7 6 6 9 9 9 9 6 6 6 6 6 5 4 3 3 4 4 5 5 5 7 7 8 8 9 11 16 18 19 20 21 22 23 24 24 24 25 26 27 28 28 29 29 30 30 30 30 30 31 31 32 32 32 30 29 27 26 24 23 21 20 19
6 8 9 11 9 7 7 7 11 12 10 11 12 12 10 8 9 10 11 11 7 6 11 9 9 11 10 8 9 9 7 5 5 5 4 3 4 4 5 5 6 7 7 8 9 9 10 9 8 11 16 18 20 21 22 23 24 25 25 26 26 27 27 28 29 29 30 30 31 31 32 32 33 33 33 33 32 30 29 27 26 24 23 21 20 19
5 7 7 9 7 6 5 6 9 11 11 11 14 16 15 12 13 14 15 16 13 13 13 6 7 12 9 7 9 7 4 4 4 3 1 3 4 5 6 7 8 9 10 10 11 10 10 9 10 13 16 18 20 22 23 24 26 27 27 27 28 28 29 29 30 31 31 32 33 34 34 34 35 35 34 33 32 30 29 27 26 24 23 22 20 19
2 4 5 8 7 3 1 1 6 9 8 9 12 16 18 18 18 18 17 14 11 13 11 5 7 11 7 7 9 6 2 2 3 4 4 4 5 6 7 7 8 9 10 11 10 9 9 9 10 13 17 20 23 24 26 27 27 28 28 29 30 30 31 31 32 33 34 34 35 35 36 36 36 35 34 33 31 30 29 27 26 24 23 22 21 19
3 2 2 6 6 4 1 2 5 5 3 5 10 13 17 18 18 16 14 11 11 12 11 8 10 10 6 5 7 7 4 4 5 7 7 5 5 7 8 9 10 11 12 11 10 10 11 11 12 15 20 24 26 27 29 29 29 30 31 32 33 33 33 33 33 34 34 35 35 36 37 36 36 35 33 32 31 30 29 27 26 24 23 22 21 19
6 5 3 5 6 3 0 4 6 5 2 8 11 13 15 13 11 10 9 12 14 12 10 11 11 9 6 6 7 7 5 7 9 9 7 6 6 7 9 10 11 12 11 10 10 11 12 13 16 21 24 26 28 31 33 33 33 34 35 34 34 34 34 34 34 34 34 35 36 37 37 36 36 35 34 32 31 30 29 27 26 25 23 22 20 19
6 7 4 5 5 2 1 4 6 5 6 9 6 9 15 15 14 13 13 15 15 12 10 10 7 5 7 8 9 9 8 8 9 6 4 6 7 7 9 11 11 11 10 9 10 12 12 15 19 21 23 26 29 31 31 31 32 32 32 32 33 34 35 34 33 34 34 35 36 37 37 37 36 35 34 32 31 30 29 28 26 25 23 21 20 19
8 8 4 3 4 3 2 5 5 8 9 5 2 3 10 14 16 17 17 16 15 14 13 12 9 6 9 10 9 7 7 7 6 5 4 6 8 9 9 11 12 11 10 10 11 12 13 15 18 20 24 28 29 29 29 30 30 28 28 31 32 33 34 34 33 33 34 36 37 37 37 37 36 35 34 32 31 30 29 28 26 25 23 21 20 18
10 8 4 3 3 3 3 5 8 7 4 3 3 1 3 4 6 7 10 12 12 11 12 14 15 11 8 8 6 4 4 4 5 5 7 8 8 9 9 10 11 11 11 12 12 14 17 22 25 26 27 27 28 29 31 31 31 29 29 31 32 34 34 34 34 34 35 37 38 38 38 38 37 36 34 33 32 31 30 28 26 25 23 22 20 18
11 8 5 3 2 3 4 5 5 5 6 6 6 3 4 5 7 7 6 10 11 12 12 14 15 12 9 9 7 4 1 2 5 7 8 8 9 11 11 11 11 10 11 12 14 16 19 23 26 25 24 24 28 32 33 33 32 31 30 31 32 33 34 34 34 35 37 38 40 39 39 38 37 36 35 34 32 31 30 28 27 25 23 22 20 18
9 8 8 6 2 3 4 2 3 6 10 8 5 5 6 7 9 10 5 7 9 11 13 13 13 12 10 9 8 3 3 1 6 9 8 9 11 11 11 11 11 11 10 10 13 15 16 18 21 23 23 25 28 31 32 33 33 32 31 31 32 32 33 33 35 36 37 39 40 40 39 38 38 37 35 34 33 32 31 28 27 25 23 21 19 17
7 4 7 8 3 4 6 5 6 9 8 4 7 8 8 9 10 9 1 8 7 9 11 12 12 12 12 10 8 7 5 4 8 8 7 8 9 9 8 10 11 12 13 11 11 13 15 17 20 21 23 25 28 30 32 33 33 32 32 32 32 32 33 34 36 37 38 39 39 40 39 37 37 36 35 34 33 32 30 28 26 25 23 21 19 17
7 4 6 8 6 6 7 6 5 5 5 5 8 7 7 9 11 9 3 9 6 8 10 12 14 14 13 11 8 8 8 9 7 6 5 5 5 4 5 7 8 10 13 14 12 12 14 17 19 22 25 28 30 31 32 33 33 32 32 32 32 33 35 37 38 38 38 38 38 38 38 37 36 35 34 33 32 31 29 28 26 24 23 21 18 16
4 2 3 6 6 6 7 6 5 4 5 6 6 5 8 9 8 6 9 8 6 7 7 9 12 12 9 9 7 7 10 8 5 3 4 2 2 2 1 3 3 5 8 11 11 11 13 17 20 23 25 27 28 30 32 34 34 32 32 32 33 36 38 38 37 37 37 37 37 38 37 36 34 33 33 32 31 30 28 26 25 24 22 21 19 17
5 3 2 4 6 4 4 4 4 6 5 5 4 5 8 7 4 8 7 2 4 6 4 5 9 7 7 8 9 9 8 4 3 4 4 1 2 2 3 4 2 1 1 4 7 10 13 16 17 17 18 20 24 29 33 34 33 32 31 32 35 37 37 35 36 36 36 36 36 36 35 34 33 32 32 31 31 30 28 26 24 23 22 21 19 17
7 6 3 4 5 3 2 3 3 7 5 10 11 5 5 5 6 6 2 2 3 5 5 5 7 6 7 9 10 10 6 2 3 5 4 2 2 1 2 3 3 3 3 3 6 9 12 14 14 14 15 17 22 28 31 33 32 30 30 31 33 32 32 33 35 35 35 35 35 34 34 33 32 32 31 31 30 29 27 26 24 23 21 20 19 18
5 7 6 5 5 5 5 7 6 4 6 11 10 6 8 7 4 3 4 3 3 4 4 4 5 6 7 8 7 8 6 4 5 5 3 3 2 0 2 3 3 2 3 3 5 8 11 13 14 13 14 17 22 27 31 33 31 29 29 30 29 29 30 32 33 33 34 34 34 33 33 32 32 31 31 31 29 28 27 26 25 23 21 20 19 18
6 6 5 4 4 4 5 7 4 2 4 5 2 2 6 3 3 3 5 4 2 4 4 3 4 5 6 6 6 6 5 5 5 4 2 2 0 2 2 3 3 3 3 3 5 8 10 12 14 14 15 17 21 26 30 32 32 30 29 28 28 30 32 32 33 33 34 34 34 33 33 32 32 31 31 30 29 28 27 27 25 23 22 21 19 18
3 1 4 3 2 3 3 2 3 2 3 3 2 3 3 1 3 3 4 3 3 4 3 1 3 4 5 5 5 5 5 5 5 3 2 1 2 2 3 3 4 4 4 5 6 8 9 10 12 14 14 16 19 23 27 29 29 28 28 28 28 31 33 34 34 34 34 34 34 34 33 33 32 31 31 30 29 28 27 26 25 24 22 21 19 18
3 2 4 3 4 4 4 2 3 3 4 4 3 3 1 2 2 1 3 3 3 3 3 1 2 4 4 4 5 5 5 5 5 4 2 2 2 2 3 3 4 4 4 6 7 8 9 11 12 12 13 14 17 20 22 24 24 24 25 26 28 30 32 33 35 35 34 35 34 34 34 34 34 33 31 30 29 28 27 25 24 24 23 22 21 19
2 4 4 3 5 6 4 3 2 2 3 3 2 2 1 1 2 3 3 4 4 4 3 2 3 4 3 2 3 4 3 3 5 5 3 3 3 3 3 3 4 4 4 5 6 7 8 10 11 11 12 13 15 17 20 21 22 22 24 25 28 30 31 33 34 35 35 35 35 35 35 35 34 33 32 31 30 29 27 26 25 24 23 21 20 20
4 6 5 3 4 2 1 2 2 2 3 5 6 5 4 3 4 5 4 5 6 5 5 5 4 3 3 3 3 4 5 3 4 4 4 4 3 3 3 4 4 4 4 5 6 7 8 8 9 10 11 12 14 16 18 19 20 21 22 25 27 30 32 33 33 34 34 34 34 35 35 34 34 33 33 32 30 28 26 25 24 23 21 19 18 17
5 6 3 4 3 4 4 6 7 4 1 6 8 7 5 4 6 6 5 5 5 5 5 6 5 4 4 3 2 4 5 4 4 3 3 3 3 4 5 5 6 5 5 5 6 7 7 7 8 9 11 12 13 15 17 18 19 20 21 24 27 30 32 34 33 33 33 34 34 35 35 34 34 33 33 32 30 28 25 22 21 20 20 18 17 15
6 7 7 8 7 7 7 11 10 5 2 5 7 7 6 5 6 8 6 5 5 4 4 6 5 4 5 6 6 5 4 2 2 3 2 0 1 3 4 6 6 6 6 6 7 7 7 7 8 10 11 12 13 15 17 18 20 21 22 24 27 30 32 34 34 33 34 35 35 35 35 35 34 34 33 31 30 29 26 23 20 18 18 17 15 13
Wind_Direction
162 151 195 204 197 191 188 197 214 229 248 256 246 211 206 201 230 232 233 291 255 164 225 215 221 248 250 257 252 200 172 222 236 226 225 226 218 221 220 224 225 224 234 238 236 232 228 226 222 220 219 220 222 223 225 225 225 224 221 220 220 221 222 221 220 219 219 220 219 220 226 230 232 234 236 238 242 243 245 245 247 250 256 264 264 261
163 190 214 207 181 173 181 194 222 222 233 248 250 235 230 210 223 240 218 301 333 183 236 227 230 259 257 255 253 164 179 221 227 217 221 222 219 223 220 225 227 229 240 239 236 231 225 224 222 220 219 218 219 221 222 223 224 222 220 220 221 220 220 221 221 221 221 222 221 221 225 229 232 234 236 238 240 242 244 247 249 251 252 255 257 258
191 217 215 180 140 152 185 210 226 227 226 230 239 227 232 222 233 284 288 326 4 192 258 251 212 253 260 257 236 191 207 230 223 215 224 218 215 222 218 224 226 229 238 229 231 228 220 220 218 217 217 217 219 220 221 222 222 220 219 220 220 220 220 221 222 223 224 225 225 225 228 229 230 234 238 240 243 244 246 248 250 253 256 258 259 259
195 229 169 127 137 170 196 227 229 233 233 228 218 204 237 223 183 237 258 313 21 123 236 154 201 266 276 286 269 225 217 240 240 227 237 229 218 223 222 225 222 219 225 226 231 227 219 218 215 213 214 216 218 218 219 220 219 219 218 219 220 220 222 222 223 224 225 226 225 225 228 231 232 236 239 240 244 246 248 250 249 255 261 263 265 262
184 109 115 134 168 191 208 234 234 234 240 239 215 203 231 211 199 216 186 133 25 354 85 100 16 298 267 266 268 244 201 234 251 238 248 247 232 238 250 244 226 217 219 221 226 223 216 215 213 213 214 215 215 216 218 218 218 219 220 221 221 221 222 223 224 224 223 222 220 219 221 225 228 233 235 235 238 241 245 248 248 254 258 262 266 258
203 85 133 156 179 186 205 235 233 220 234 256 229 209 212 205 205 189 137 115 101 258 269 106 225 282 282 254 249 251 212 236 242 231 242 247 236 237 247 240 226 224 223 221 228 226 218 217 214 214 213 213 214 216 219 220 221 222 223 223 222 222 223 224 224 223 221 219 218 217 215 216 218 223 229 233 237 240 244 248 248 248 251 259 261 255
217 153 145 166 186 182 199 240 234 204 214 254 235 206 206 197 179 160 153 141 163 227 276 100 182 253 305 272 244 259 275 255 256 248 247 247 240 232 233 233 225 225 223 222 233 231 220 218 214 213 214 212 215 218 219 220 222 223 224 225 224 225 225 224 224 222 221 220 219 220 220 220 219 221 228 236 243 246 248 250 247 241 242 251 251 251
165 172 159 168 184 192 205 228 225 196 202 246 240 192 194 182 173 175 168 167 194 220 308 19 152 225 275 259 258 320 293 270 269 257 254 248 239 235 231 230 225 222 215 213 224 225 219 215 211 212 214 214 217 219 219 218 220 222 224 226 226 227 227 226 224 223 222 221 220 221 223 224 225 227 232 237 242 244 247 246 241 237 227 222 223 226
158 176 177 169 180 201 210 221 215 188 205 245 220 170 184 177 173 179 173 170 146 186 255 271 158 200 260 269 300 357 259 271 266 248 246 241 236 234 232 231 227 225 218 210 216 220 218 215 213 214 215 216 217 218 218 218 220 221 222 224 226 226 227 226 225 224 223 222 223 222 222 223 226 230 233 233 233 234 234 224 212 210 199 194 210 223
176 182 167 171 194 203 207 227 211 190 212 226 148 104 66 68 93 119 161 141 72 219 227 220 184 203 261 270 292 344 242 254 255 249 242 240 238 231 228 231 228 226 223 217 219 221 222 220 217 215 215 216 216 217 219 219 219 220 221 222 223 225 226 226 225 224 223 222 222 222 222 222 222 223 223 220 216 211 207 196 187 188 189 201 227 230
135 106 149 181 206 194 202 235 206 197 201 144 112 77 50 35 50 58 71 94 108 241 238 216 192 201 255 264 235 212 217 219 227 250 255 252 249 232 226 229 223 220 219 213 216 220 218 216 213 210 210 212 212 214 216 217 218 219 221 221 223 224 225 225 224 223 222 221 221 221 222 222 220 218 213 205 198 191 188 186 182 184 192 207 217 217
118 107 184 195 167 141 175 236 214 199 194 149 123 108 80 0 26 42 8 75 193 237 257 248 189 180 232 255 231 230 248 225 213 237 252 259 260 244 234 232 223 219 213 202 202 203 191 185 192 197 201 203 204 207 210 212 215 216 219 221 222 224 224 224 224 222 222 221 220 221 221 221 221 218 211 202 195 190 186 185 183 186 198 208 211 222
182 211 224 178 173 160 159 206 319 20 223 197 161 144 159 257 90 181 241 193 220 242 278 288 181 193 237 249 253 261 265 245 219 224 243 259 266 256 239 229 223 215 205 198 191 188 181 175 181 186 191 196 198 203 206 208 212 214 217 220 222 223 222 222 222 221 220 220 219 219 219 219 221 218 212 205 198 194 192 192 193 201 215 220 224 234
207 291 250 186 197 181 175 191 191 191 200 195 185 173 180 174 159 203 220 226 247 252 300 301 217 246 268 265 250 248 253 245 222 230 242 249 259 264 251 226 216 215 206 202 193 186 193 191 189 190 193 196 200 203 206 209 212 215 218 220 221 222 220 219 219 218 218 218 217 218 218 219 219 214 208 204 199 195 193 196 204 216 223 222 224 228
174 231 216 188 181 168 187 207 182 149 180 203 209 165 175 175 174 203 205 196 219 240 306 298 210 196 200 252 244 238 266 279 238 247 249 245 258 266 254 215 200 213 211 204 203 200 207 203 199 200 201 203 207 209 211 212 213 215 217 219 219 217 215 213 213 213 213 213 213 213 215 215 214 210 203 198 197 196 196 202 213 219 219 220 220 218
187 228 215 164 147 151 174 209 123 123 176 217 170 141 203 195 153 152 182 179 171 153 283 236 227 215 206 269 280 272 297 290 263 278 259 249 269 253 225 215 198 207 207 204 209 211 219 213 207 208 209 212 214 217 219 217 215 214 213 214 213 211 208 206 206 205 206 207 207 208 209 208 206 202 197 192 191 194 201 212 220 217 214 215 213 206
186 236 355 91 70 169 173 167 156 175 189 175 161 197 229 171 118 118 198 98 91 173 240 196 239 296 306 284 307 346 314 290 278 285 262 254 276 241 224 220 205 205 202 205 209 208 212 208 208 210 210 212 214 218 222 220 216 212 208 204 201 198 195 195 196 197 197 198 198 198 199 198 195 193 193 193 193 197 206 214 215 210 205 203 200 193
159 127 316 151 156 208 167 130 147 226 158 137 194 205 196 114 108 110 170 5 50 207 263 285 216 276 246 246 324 350 297 276 263 258 269 274 256 234 232 220 214 216 210 215 216 213 210 200 202 205 205 209 212 216 220 219 212 205 203 199 192 188 185 184 187 189 190 191 189 188 188 188 188 190 192 195 198 203 208 208 201 198 193 188 185 179
153 119 319 198 165 176 97 113 174 248 187 181 220 201 140 175 209 140 162 189 175 220 283 317 257 254 199 214 294 271 234 249 250 238 254 257 234 226 231 220 222 224 216 218 213 212 208 197 199 198 199 205 208 212 215 213 204 195 194 194 189 185 181 180 182 183 183 185 185 183 183 185 187 189 191 195 200 205 203 196 188 185 183 177 173 167
164 139 303 288 209 168 90 147 194 207 205 196 227 226 161 175 190 187 170 165 179 212 254 300 298 265 227 217 219 230 234 234 231 219 228 235 228 222 219 212 214 212 209 208 202 204 201 197 198 195 197 201 203 207 207 204 198 190 187 187 185 183 180 179 181 180 180 181 182 182 182 185 187 190 194 198 200 196 189 183 179 178 175 168 163 158
162 146 176 292 313 189 177 200 192 183 179 174 182 197 204 139 144 183 171 118 139 177 194 213 280 262 248 215 199 227 242 227 211 216 227 234 230 223 217 210 210 205 207 205 194 198 199 197 194 189 193 196 197 199 198 197 196 190 187 185 184 183 179 178 179 179 179 179 181 183 183 185 189 193 196 195 189 184 180 177 175 172 168 161 157 156
168 154 156 164 200 188 199 248 182 173 165 170 198 202 190 152 115 170 236 219 109 151 170 166 247 267 257 212 206 226 240 216 204 218 234 241 232 224 219 211 208 203 204 201 193 193 192 189 185 180 183 186 187 190 190 193 193 191 190 187 186 186 182 180 180 180 182 182 183 187 188 191 193 193 191 184 180 179 176 174 171 167 163 158 155 155
135 116 121 153 208 205 229 218 159 156 146 166 220 215 183 170 135 166 219 228 133 178 132 128 235 271 264 227 225 248 277 283 242 234 246 250 234 226 221 208 203 205 204 198 194 193 188 184 180 176 179 181 185 187 188 191 193 194 194 191 189 189 187 186 185 186 187 188 190 192 193 193 189 186 183 179 177 176 172 169 166 163 161 157 155 155
126 115 116 85 295 307 317 342 97 111 129 213 236 195 166 198 150 157 193 182 172 188 140 166 249 267 275 270 252 264 282 283 267 246 243 254 251 228 219 206 195 197 197 193 191 189 184 180 176 176 179 181 184 186 187 190 193 195 197 195 192 192 192 192 192 193 194 193 192 190 189 186 182 180 179 177 175 172 169 166 163 161 161 158 156 157
167 154 136 120 74 6 333 300 255 220 197 200 235 216 159 124 101 110 126 115 196 221 175 191 241 255 270 307 316 286 291 286 269 245 230 245 249 226 214 202 192 188 186 187 187 184 181 180 180 183 185 184 185 187 187 189 191 192 195 197 196 196 196 196 197 197 195 191 186 183 181 180 178 178 177 174 172 169 166 164 161 161 162 161 160 159
176 172 151 154 173 190 197 209 215 205 194 184 118 311 211 161 141 166 141 129 221 241 165 180 229 258 280 308 313 303 306 291 279 273 248 243 242 225 207 196 191 188 189 189 185 185 186 187 191 192 191 190 190 189 188 188 188 188 189 192 194 195 193 192 192 189 186 183 180 178 178 178 177 177 175 172 169 167 165 163 162 163 163 164 163 161
143 172 181 187 197 197 188 181 145 128 140 207 204 183 212 207 178 159 123 170 198 183 194 214 205 229 270 277 280 291 292 275 279 291 283 266 258 240 212 194 191 193 194 192 187 187 188 192 198 199 198 197 195 193 191 189 188 186 185 185 187 189 188 185 184 182 180 180 179 177 177 178 177 175 172 170 168 166 164 163 164 165 165 165 164 160
130 199 198 197 207 196 162 148 144 140 170 199 195 200 206 196 178 176 209 220 176 144 244 242 182 200 242 245 253 270 262 255 273 279 278 270 243 214 178 167 183 194 196 197 197 196 194 197 200 200 200 200 198 196 194 192 190 189 188 187 186 187 186 184 182 182 181 180 179 178 177 176 175 172 170 169 167 166 165 165 167 167 165 164 164 161
160 210 197 188 201 191 171 172 162 163 186 193 193 205 208 196 189 196 222 224 186 195 242 232 188 209 231 234 247 255 239 241 276 278 264 224 182 160 152 170 192 200 204 205 206 204 200 201 200 199 202 200 198 196 194 192 192 190 190 191 190 189 188 186 184 183 182 181 180 178 176 173 172 171 170 169 168 167 168 168 168 167 165 165 164 161
177 197 176 165 179 184 187 193 180 181 191 192 197 204 205 206 206 208 223 225 213 223 241 232 209 228 233 227 240 245 224 238 280 293 235 176 169 164 174 195 206 209 211 211 210 207 203 202 200 199 201 201 199 197 194 193 193 192 192 192 191 190 189 188 186 184 182 181 179 177 174 172 172 171 171 170 170 170 170 169 168 167 166 165 164 162
185 184 152 142 160 195 270 210 200 202 203 200 206 208 205 208 212 216 225 229 227 238 247 252 251 254 245 224 240 253 239 234 271 270 238 203 187 180 192 213 218 217 221 218 212 207 205 204 201 200 202 203 201 198 196 195 194 193 193 193 192 191 189 188 187 185 183 181 178 175 174 173 172 172 172 171 172 172 171 170 169 168 167 166 164 162
120 143 98 120 163 224 330 116 180 191 210 238 234 223 213 210 212 216 218 216 216 229 238 241 249 254 241 219 240 251 237 219 241 251 242 217 190 187 203 218 222 222 223 218 210 204 203 204 202 204 205 203 201 199 197 196 193 193 195 195 194 191 189 188 187 184 182 180 178 176 175 174 173 173 173 173 173 173 171 170 170 169 168 167 165 163
123 126 113 138 173 229 351 128 142 124 151 250 240 218 209 212 219 223 226 222 217 215 217 228 238 237 216 209 226 229 213 215 233 238 228 211 198 202 214 220 225 228 224 217 211 206 206 208 208 209 207 203 201 202 201 197 194 196 196 194 193 190 187 187 186 184 182 180 178 177 176 176 175 175 175 175 174 173 171 171 171 169 169 168 166 165
132 129 143 162 160 189 182 122 115 138 210 241 235 187 189 197 202 212 224 225 219 215 218 234 244 210 192 208 218 213 201 211 230 235 208 187 186 204 224 230 233 234 228 219 214 212 213 214 214 213 210 208 207 205 203 200 198 198 196 192 191 189 187 186 185 184 183 181 180 179 178 178 178 177 176 175 174 173 173 172 171 169 170 170 168 167
147 141 149 147 127 148 136 108 147 210 227 251 326 167 189 197 197 207 223 226 222 221 227 243 248 210 200 219 224 215 214 231 260 271 229 198 190 198 217 229 232 230 226 221 216 216 216 212 211 212 211 211 209 204 202 201 200 197 195 192 190 188 187 186 186 185 185 183 181 182 181 180 179 178 176 175 175 174 173 172 171 170 171 171 170 170
158 152 136 109 120 136 131 161 197 229 273 299 296 244 166 170 174 202 240 248 237 224 222 234 239 227 218 234 242 230 229 263 301 275 236 219 211 208 215 226 229 225 222 220 216 214 213 210 209 211 210 207 204 201 201 200 198 195 194 192 191 189 188 187 187 187 186 185 184 184 184 182 181 179 177 176 176 174 173 173 172 172 172 172 172 171
151 145 130 134 166 134 147 203 235 307 307 264 240 205 158 148 153 169 226 253 234 214 212 223 233 232 227 234 240 225 194 341 319 277 244 227 221 220 221 227 229 227 228 229 227 225 222 218 215 213 210 204 201 201 200 198 196 193 191 190 190 190 189 188 189 189 188 187 187 186 186 185 183 181 179 177 177 175 174 174 174 174 174 174 173 172
146 152 158 172 199 108 127 208 260 269 259 235 198 186 171 163 160 157 190 253 232 209 208 213 222 226 222 227 228 182 108 318 275 265 249 229 227 228 230 240 245 244 246 240 230 228 225 220 216 213 208 203 201 202 199 195 193 190 188 189 190 189 190 190 191 191 191 190 189 188 187 187 185 183 181 179 178 176 175 175 176 175 175 175 176 173
109 118 150 162 175 136 152 194 207 226 246 203 169 182 169 154 138 117 160 269 232 196 201 201 209 219 216 214 200 151 141 228 250 257 244 226 231 230 227 243 251 248 250 243 227 223 220 214 210 205 202 201 200 200 198 194 191 188 188 189 189 190 192 194 194 194 193 192 191 189 188 188 187 186 183 180 179 177 176 176 177 176 175 175 177 175
109 111 150 166 180 169 173 203 219 233 246 201 188 190 165 149 125 107 260 261 212 186 194 187 198 215 210 197 176 160 188 218 232 246 240 230 247 240 222 245 255 249 248 241 228 223 216 204 196 192 195 201 202 198 195 192 189 189 190 190 189 193 196 197 197 196 195 193 192 190 189 189 188 187 184 182 179 178 178 178 178 177 175 175 176 175
110 124 170 177 175 167 179 210 251 259 231 215 212 182 149 131 116 159 227 234 190 198 204 184 197 211 192 169 165 190 217 216 198 235 270 288 285 276 285 295 278 255 250 238 224 215 203 195 193 195 199 203 200 195 192 189 188 190 191 190 193 198 200 199 197 196 195 194 192 191 190 189 188 187 185 182 180 179 179 180 179 178 177 176 175 173
153 151 185 174 159 155 178 200 264 272 226 173 154 165 154 138 162 213 225 200 172 195 195 187 201 193 160 164 185 209 226 213 188 239 279 311 260 282 341 2 17 31 257 212 203 199 192 189 192 197 200 200 197 194 192 189 189 191 192 193 199 202 200 197 196 196 195 193 191 190 189 188 187 186 184 182 182 181 180 179 179 179 179 177 175 171
167 159 182 189 165 136 142 172 240 265 212 137 121 140 193 191 204 212 188 71 180 182 165 192 206 186 172 185 202 215 221 209 222 245 268 283 266 295 1 20 40 58 81 130 169 184 184 183 185 191 195 196 196 195 193 190 191 192 194 198 203 201 197 195 196 194 192 191 190 189 188 187 186 186 184 183 184 184 182 180 179 180 180 179 176 172
184 175 184 201 184 156 173 199 217 220 171 143 132 168 208 201 189 178 148 144 213 196 171 197 218 202 191 190 199 211 215 219 234 241 252 261 257 71 43 34 54 77 87 121 162 177 180 179 179 184 190 193 195 196 194 194 193 193 197 201 201 198 195 194 194 191 190 190 188 187 187 186 185 185 186 186 186 185 184 182 182 181 180 180 178 175
217 198 172 181 193 179 190 213 224 186 172 167 130 219 213 170 97 133 137 128 212 212 177 191 214 204 194 183 177 193 208 216 224 225 228 253 93 92 74 54 75 95 95 116 151 170 180 180 177 179 184 190 195 197 197 197 196 195 198 200 199 196 194 192 191 190 189 188 188 187 187 186 185 186 188 188 188 188 188 186 185 183 181 181 182 180
272 197 133 136 184 260 264 213 137 122 217 236 327 304 247 96 79 136 125 112 196 193 154 182 202 181 177 168 162 191 217 210 207 221 223 109 75 93 103 95 99 114 129 139 148 163 175 177 175 177 180 186 193 196 198 199 199 199 199 198 197 196 194 192 190 189 188 188 188 187 186 185 186 187 189 190 190 191 192 191 188 187 185 183 184 185
298 177 146 133 156 198 241 225 138 157 218 248 316 327 305 71 63 137 137 137 158 142 119 112 130 135 145 146 159 203 221 189 176 193 178 131 134 135 109 106 118 130 140 148 153 163 170 170 171 175 178 183 190 196 198 200 202 205 203 199 197 196 194 192 189 188 188 188 187 187 187 187 187 188 189 191 191 192 193 193 192 191 190 188 188 188
213 162 170 182 172 178 216 261 263 267 265 262 270 261 200 118 73 66 93 117 109 96 90 77 88 113 117 114 160 184 180 163 171 172 161 169 180 167 154 152 145 136 142 156 162 171 176 175 175 180 183 186 190 194 198 200 203 207 206 202 198 195 192 191 190 189 189 189 188 188 189 189 190 190 190 191 192 193 194 195 195 196 196 197 197 196
143 160 177 161 149 172 275 264 242 354 336 281 249 233 230 195 125 93 79 93 98 94 87 67 52 82 108 118 158 142 125 156 187 164 158 183 184 166 171 169 156 154 161 168 174 179 183 185 187 187 189 193 194 195 198 201 204 207 207 203 200 196 193 191 191 191 191 191 190 190 190 191 192 192 192 193 193 194 195 197 199 199 198 198 199 200
141 166 162 116 154 215 213 189 176 140 161 239 229 206 202 187 139 116 100 96 102 112 111 91 58 42 58 60 72 112 123 165 199 173 166 180 175 174 173 161 160 170 172 175 184 186 186 193 197 195 196 199 198 197 198 202 204 206 207 205 202 199 196 193 192 192 193 193 192 192 192 192 192 193 193 194 193 192 191 193 196 197 197 197 196 195
169 180 170 161 193 220 196 179 177 154 159 214 197 169 176 173 134 127 131 128 124 129 124 110 92 66 43 27 26 52 80 117 164 148 146 142 137 158 165 164 169 176 178 185 191 189 192 198 199 200 202 202 202 202 202 204 206 207 207 207 204 202 201 198 194 194 195 196 195 195 194 193 194 193 193 194 194 191 187 184 186 190 196 196 191 189